[[{"header":{"parameterUnit":"m.s-1","parameterCategory":1,"la1":30.2991,"la2":30.254,"lo1":-89.0895,"lo2":-89.0444,"dy":0.0017,"dx":0.0017,"nx":28,"ny":28,"refTime":"2024-08-23T09:00:00:Z","depth":0,"parameterNumber":2,"parameterNumberName":"U-component_of_WINDS"},"data":[0,0,0,0,0,0,0,0,0,0,0,0,0,0,0,0,0,0,0,0,0,0,0,0,0,0,0,0,0,0,0,0,0,0,0,0,0,0,0,0,0,0,0,0,0,0,0,0,0,0,0,0,0,0,0,0,0,0,-4.497,-4.497,0,-4.4932,-4.4932,-4.4931,-4.4765,-4.4762,-4.4758,-4.4754,-4.4718,-4.472,-4.4723,0,0,0,0,0,0,0,0,0,0,0,0,0,-4.4901,-4.4903,-4.497,-4.497,-4.4969,-4.4932,-4.4932,-4.4931,-4.4766,-4.4761,-4.4757,-4.4752,-4.4717,-4.472,-4.4723,0,0,0,0,0,0,0,0,0,0,0,0,0,-4.4904,-4.4904,-4.497,-4.4882,-4.4874,-4.4933,-4.4932,-4.4931,-4.4767,-4.4761,-4.4755,-4.475,-4.4716,-4.472,-4.4724,-4.4865,0,0,-4.4736,-4.4737,0,0,0,0,0,0,0,0,-4.4904,-4.4907,-4.4896,-4.4888,-4.4879,-4.4848,-4.4894,-4.4909,-4.4769,-4.4808,-4.4754,-4.4747,-4.4766,-4.4765,-4.4771,-4.4863,-4.4861,-4.4736,-4.4739,-4.474,-4.4741,0,0,0,0,0,0,0,-4.4904,-4.4908,-4.4955,-4.4896,-4.4886,-4.4845,-4.4839,-4.4896,-4.482,-4.4804,-4.4792,-4.4789,-4.476,-4.4768,-4.4769,-4.4861,-4.4736,-4.474,-4.4742,-4.4744,-4.5066,-4.5072,0,0,0,0,0,0,-4.4916,-4.4909,-4.4956,-4.4954,-4.4878,-4.4851,-4.4845,-4.4864,-4.4819,-4.4806,-4.4794,-4.4782,-4.4764,-4.4765,-4.4767,-4.4928,-4.474,-4.4744,-4.4746,-4.506,-4.5068,-4.5074,0,0,0,0,0,0,-4.4915,-4.4922,-4.4958,-4.4928,-4.4929,-4.4859,-4.4882,-4.4866,-4.4873,-4.4812,-4.4797,-4.4816,-4.4759,-4.4761,-4.4841,-4.4925,-4.4746,-4.4749,-4.5053,-4.5062,-4.5071,-4.5253,0,0,0,0,0,0,-4.4914,-4.4923,-4.4975,-4.493,-4.4932,-4.5033,-4.4887,-4.4869,-4.488,-4.4863,-4.4828,-4.4817,-4.4755,-4.4836,-4.4845,-4.4927,-4.4752,-4.5045,-4.5057,-4.5068,-4.524,-4.5268,-4.5292,0,0,0,0,0,-4.4912,-4.5029,-4.4979,-4.4985,-4.4996,-4.5038,-4.5039,-4.4964,-4.4888,-4.494,-4.49,-4.4818,-4.4915,-4.4846,-4.4855,-4.4939,-4.5039,-4.5054,-4.5067,-4.5228,-4.5262,-4.5291,0,0,0,0,0,0,-4.5086,-4.5021,-4.4965,-4.507,-4.5061,-4.501,-4.5073,-4.5003,-4.5016,-4.5,-4.4908,-4.4901,-4.4995,-4.4975,-4.4899,-4.5073,-4.4963,-4.498,-4.5082,-4.5114,-4.514,-4.5142,-4.4756,0,0,0,0,0,-4.5136,-4.5175,-4.5117,-4.5216,-4.5213,-4.5145,-4.516,-4.5104,-4.5091,-4.5086,-4.5052,-4.5044,-4.5071,-4.5092,-4.5115,-4.5236,-4.5226,-4.5299,-4.5325,-4.5347,-4.5362,-4.5424,-4.5456,-4.512,-4.512,-4.512,0,0,-4.5241,-4.521,-4.5241,-4.525,-4.5235,-4.5278,-4.5142,-4.5194,-4.5225,-4.5094,-4.5166,-4.5142,-4.5126,-4.5228,-4.5271,-4.5214,-4.5452,-4.5365,-4.5382,-4.5385,-4.5442,-4.5474,-4.5502,-4.513,-4.5128,-4.5126,0,0,-4.5453,-4.5435,-4.5514,-4.5503,-4.5483,-4.5436,-4.5456,-4.5416,-4.5394,-4.5465,-4.5368,-4.5405,-4.5455,-4.5447,-4.545,-4.5661,-4.5585,-4.5671,-4.5807,-4.5869,-4.5896,-4.5919,-4.5993,-4.6021,-4.5686,-4.5687,-4.5687,0,-4.5586,-4.5645,-4.5564,-4.5621,-4.5628,-4.5511,-4.5591,-4.5585,-4.5574,-4.5582,-4.5518,-4.5579,-4.556,-4.5658,-4.571,-4.5716,-4.5735,-4.5674,-4.5898,-4.5921,-4.5941,-4.6011,-4.6039,-4.5697,-4.5696,-4.5695,-4.5694,0,-4.5809,-4.5853,-4.5919,-4.5911,-4.5925,-4.5994,-4.5923,-4.5948,-4.5891,-4.5852,-4.5927,-4.59,-4.5915,-4.5934,-4.5879,-4.6025,-4.599,-4.5915,-4.5802,-4.5985,-4.6049,-4.6075,-4.5712,-4.5708,-4.5705,-4.5703,0,0,-4.6128,-4.6074,-4.61,-4.6094,-4.6064,-4.6096,-4.6161,-4.6174,-4.6197,-4.6194,-4.6245,-4.6291,-4.6221,-4.6224,-4.6168,-4.6223,-4.6391,-4.614,-4.6138,-4.6187,-4.6548,-4.6605,-4.6637,-4.6341,-4.6346,-4.6349,-4.6549,0,-4.633,-4.6434,-4.6363,-4.6479,-4.6518,-4.6409,-4.6464,-4.6452,-4.6418,-4.6447,-4.6408,-4.6442,-4.6347,-4.6348,-4.6398,-4.636,-4.6462,-4.6345,-4.6388,-4.639,-4.6394,-4.667,-4.673,-4.692,-4.6574,-4.6578,-4.6581,0,-4.6578,-4.6585,-4.6706,-4.6667,-4.6681,-4.6732,-4.6739,-4.6768,-4.6753,-4.6724,-4.6728,-4.6658,-4.6718,-4.6609,-4.6692,-4.6613,-4.6627,-4.6612,-4.6617,-4.6617,-4.6496,-4.6677,-4.6978,-4.7007,-4.662,-4.6617,-4.6614,0,-4.6798,-4.6837,-4.6914,-4.6913,-4.6871,-4.6909,-4.6894,-4.6873,-4.6886,-4.6893,-4.69,-4.6915,-4.6923,-4.6936,-4.6872,-4.6798,-4.6963,-4.6848,-4.694,-4.6942,-4.6978,-4.6977,-4.7285,-4.699,-4.699,-4.6989,-4.6989,0,-4.7029,-4.7107,-4.7012,-4.7059,-4.7143,-4.7061,-4.7147,-4.712,-4.7102,-4.7143,-4.705,-4.7091,-4.7004,-4.7036,-4.6986,-4.7062,-4.7066,-4.7045,-4.703,-4.7052,-4.7055,-4.7059,-4.7044,-4.6997,-4.6995,-4.6994,-4.6992,0,-4.7287,-4.7227,-4.7303,-4.7257,-4.7247,-4.7312,-4.7272,-4.7314,-4.7274,-4.7327,-4.7334,-4.7271,-4.7304,-4.7242,-4.7267,-4.7233,-4.7339,-4.7305,-4.7344,-4.7333,-4.7429,-4.742,-4.775,-4.7788,-4.747,-4.7473,-4.7476,0,-4.7438,-4.7495,-4.7455,-4.7475,-4.7464,-4.7498,-4.7511,-4.7433,-4.745,-4.7437,-4.7482,-4.7506,-4.7521,-4.7579,-4.7536,-4.7555,-4.752,-4.7634,-4.7522,-4.7542,-4.752,-4.7517,-4.7522,-4.7657,-4.766,-4.7664,-4.7666,0,-4.7712,-4.7679,-4.77,-4.7712,-4.7729,-4.7735,-4.7733,-4.7755,-4.7673,-4.7697,-4.7729,-4.7741,-4.7766,-4.7792,-4.78,-4.7785,-4.7713,-4.7702,-4.7724,-4.7746,-4.7766,-4.7755,-4.7405,-4.7694,-4.7692,-4.7689,-4.7688,-4.7687,-4.792,-4.7965,-4.7944,-4.7971,-4.7962,-4.7963,-4.8,-4.7964,-4.7989,-4.8002,-4.7955,-4.7998,-4.7982,-4.7986,-4.7979,-4.8011,-4.796,-4.7993,-4.8001,-4.801,-4.8024,-4.7762,-4.8013,-4.8012,-4.8011,-4.801,-4.801,0,-4.8188,-4.8169,-4.8194,-4.8195,-4.8217,-4.8146,-4.8141,-4.8164,-4.8202,-4.8193,-4.821,-4.8247,-4.8272,-4.8231,-4.8249,-4.8284,-4.8251,-4.8291,-4.8287,-4.8284,-4.8069,-4.8048,-4.8317,-4.8317,-4.8317,-4.8317,-4.8317,-4.8317,-4.833,-4.8402,-4.8368,-4.8435,-4.8415,-4.8455,-4.8459,-4.846,-4.8452,-4.8497,-4.8516,-4.849,-4.8468,-4.8484,-4.8504,-4.8492,-4.8502,-4.8554,-4.853,-4.833,-4.83,-4.8271,-4.825,-4.8557,-4.8558,-4.8742,-4.8744,-4.8745]},{"header":{"parameterUnit":"m.s-1","parameterCategory":1,"la1":30.2991,"la2":30.254,"lo1":-89.0895,"lo2":-89.0444,"dy":0.0017,"dx":0.0017,"nx":28,"ny":28,"refTime":"2024-08-23T09:00:00:Z","depth":0,"parameterNumber":3,"parameterNumberName":"V-component_of_WINDS"},"data":[0,0,0,0,0,0,0,0,0,0,0,0,0,0,0,0,0,0,0,0,0,0,0,0,0,0,0,0,0,0,0,0,0,0,0,0,0,0,0,0,0,0,0,0,0,0,0,0,0,0,0,0,0,0,0,0,0,0,-0.4193,-0.4194,0,-0.4318,-0.4319,-0.432,-0.44,-0.4401,-0.4401,-0.4402,-0.4523,-0.4526,-0.4529,0,0,0,0,0,0,0,0,0,0,0,0,0,-0.4015,-0.4018,-0.4192,-0.4194,-0.4196,-0.4317,-0.4319,-0.4321,-0.44,-0.4401,-0.4401,-0.4402,-0.4522,-0.4525,-0.4529,0,0,0,0,0,0,0,0,0,0,0,0,0,-0.4111,-0.4019,-0.4192,-0.425,-0.4256,-0.4317,-0.4319,-0.4321,-0.44,-0.4401,-0.4401,-0.4402,-0.4521,-0.4525,-0.4529,-0.454,0,0,-0.4542,-0.4544,0,0,0,0,0,0,0,0,-0.4106,-0.4117,-0.424,-0.4246,-0.4253,-0.4344,-0.4301,-0.4394,-0.44,-0.4345,-0.4402,-0.4402,-0.4462,-0.4472,-0.4493,-0.4546,-0.4551,-0.4542,-0.4545,-0.4547,-0.4548,0,0,0,0,0,0,0,-0.4099,-0.4112,-0.4242,-0.4242,-0.425,-0.4267,-0.4282,-0.4319,-0.4398,-0.435,-0.4356,-0.437,-0.4466,-0.4489,-0.4497,-0.4553,-0.4542,-0.4546,-0.4549,-0.455,-0.4619,-0.4619,0,0,0,0,0,0,-0.4084,-0.4106,-0.4238,-0.4246,-0.418,-0.427,-0.4286,-0.4314,-0.4398,-0.4411,-0.4369,-0.4373,-0.4481,-0.4492,-0.4501,-0.4519,-0.4547,-0.4551,-0.4553,-0.462,-0.4619,-0.4618,0,0,0,0,0,0,-0.408,-0.4095,-0.4233,-0.4178,-0.4197,-0.4272,-0.4303,-0.4316,-0.4339,-0.4413,-0.4426,-0.4379,-0.4482,-0.4495,-0.453,-0.4525,-0.4552,-0.4556,-0.4621,-0.462,-0.4619,-0.4555,0,0,0,0,0,0,-0.4074,-0.4093,-0.41,-0.4177,-0.4199,-0.4262,-0.4303,-0.4318,-0.4347,-0.4353,-0.4425,-0.4437,-0.4484,-0.4523,-0.4534,-0.4531,-0.4559,-0.4622,-0.462,-0.4619,-0.4558,-0.4552,-0.4547,0,0,0,0,0,-0.4068,-0.4076,-0.41,-0.4115,-0.421,-0.4261,-0.4274,-0.4329,-0.4346,-0.4353,-0.4399,-0.4435,-0.4523,-0.4526,-0.4539,-0.4537,-0.4622,-0.4621,-0.4619,-0.4561,-0.4554,-0.4547,0,0,0,0,0,0,-0.3994,-0.4087,-0.4115,-0.4149,-0.4197,-0.4275,-0.4285,-0.432,-0.4362,-0.4366,-0.4431,-0.4446,-0.4474,-0.4509,-0.4511,-0.4551,-0.4577,-0.4578,-0.4528,-0.4522,-0.4516,-0.4507,-0.4563,0,0,0,0,0,-0.3982,-0.4018,-0.4097,-0.4119,-0.4142,-0.4209,-0.4233,-0.4272,-0.4323,-0.4343,-0.4393,-0.4439,-0.4478,-0.4501,-0.4541,-0.4563,-0.4579,-0.4568,-0.4562,-0.4557,-0.4557,-0.457,-0.4566,-0.4613,-0.4613,-0.4614,0,0,-0.3957,-0.4012,-0.4031,-0.4105,-0.4147,-0.4181,-0.4225,-0.426,-0.4285,-0.4348,-0.4385,-0.4422,-0.4478,-0.4506,-0.4521,-0.4536,-0.4547,-0.4555,-0.4551,-0.4554,-0.4568,-0.4564,-0.456,-0.4612,-0.4613,-0.4613,0,0,-0.3929,-0.3975,-0.3999,-0.4039,-0.4103,-0.4147,-0.4152,-0.4225,-0.4253,-0.4291,-0.4338,-0.4367,-0.4432,-0.447,-0.4498,-0.4482,-0.4516,-0.4492,-0.4463,-0.4475,-0.4472,-0.4469,-0.4462,-0.4459,-0.4492,-0.4492,-0.4492,0,-0.389,-0.3945,-0.4005,-0.4037,-0.4068,-0.4128,-0.415,-0.4186,-0.4258,-0.4276,-0.4292,-0.4374,-0.4416,-0.4453,-0.4449,-0.447,-0.4476,-0.4485,-0.4468,-0.4465,-0.4463,-0.4458,-0.4455,-0.4488,-0.4489,-0.4489,-0.4489,0,-0.3893,-0.393,-0.3941,-0.4011,-0.4042,-0.4069,-0.4131,-0.4155,-0.419,-0.4231,-0.4267,-0.432,-0.437,-0.4382,-0.4415,-0.4423,-0.4431,-0.4456,-0.4483,-0.4455,-0.4451,-0.4449,-0.4484,-0.4485,-0.4486,-0.4487,0,0,-0.3824,-0.3926,-0.3929,-0.3961,-0.4034,-0.4062,-0.409,-0.4142,-0.416,-0.4207,-0.4231,-0.4283,-0.4307,-0.4338,-0.4376,-0.4387,-0.437,-0.4411,-0.4413,-0.4401,-0.438,-0.4361,-0.4358,-0.4392,-0.4392,-0.4392,-0.4375,0,-0.3807,-0.3864,-0.3918,-0.3954,-0.3988,-0.4044,-0.4068,-0.4114,-0.4153,-0.4185,-0.4227,-0.4264,-0.4293,-0.4312,-0.4325,-0.4369,-0.4366,-0.4371,-0.4413,-0.4414,-0.4398,-0.4356,-0.4336,-0.4318,-0.4374,-0.4374,-0.4374,0,-0.3796,-0.3841,-0.3881,-0.395,-0.3966,-0.3987,-0.4038,-0.4069,-0.4121,-0.4148,-0.4182,-0.4222,-0.4252,-0.4275,-0.4315,-0.4317,-0.4337,-0.4361,-0.4362,-0.4368,-0.4393,-0.4361,-0.4314,-0.4311,-0.4372,-0.4372,-0.4372,0,-0.3741,-0.3812,-0.3845,-0.387,-0.3951,-0.3965,-0.3998,-0.4051,-0.4078,-0.4121,-0.4139,-0.4183,-0.4207,-0.424,-0.429,-0.4302,-0.4325,-0.4352,-0.4347,-0.4345,-0.435,-0.4349,-0.4305,-0.4362,-0.4362,-0.4362,-0.4362,0,-0.3717,-0.3739,-0.3822,-0.3842,-0.3867,-0.3927,-0.395,-0.3989,-0.4035,-0.4062,-0.4112,-0.4135,-0.42,-0.423,-0.4269,-0.4296,-0.4307,-0.4328,-0.4338,-0.4324,-0.4322,-0.4339,-0.4341,-0.4361,-0.4361,-0.4362,-0.4362,0,-0.3661,-0.3717,-0.3757,-0.383,-0.3849,-0.3864,-0.3926,-0.3946,-0.3987,-0.402,-0.4031,-0.4095,-0.4133,-0.4187,-0.4241,-0.4267,-0.4288,-0.4304,-0.4271,-0.4277,-0.4269,-0.4269,-0.4236,-0.4234,-0.429,-0.429,-0.4289,0,-0.3642,-0.3661,-0.3736,-0.3759,-0.3791,-0.3827,-0.3855,-0.3913,-0.3939,-0.3999,-0.4012,-0.4054,-0.4092,-0.4149,-0.4199,-0.424,-0.4257,-0.4242,-0.4264,-0.4248,-0.4257,-0.4255,-0.4257,-0.4237,-0.4237,-0.4236,-0.4235,0,-0.3603,-0.3629,-0.3669,-0.3717,-0.3749,-0.379,-0.3832,-0.3847,-0.3914,-0.3941,-0.3982,-0.401,-0.4066,-0.4107,-0.4154,-0.4186,-0.4221,-0.4228,-0.4229,-0.4215,-0.4195,-0.4206,-0.4258,-0.4229,-0.4229,-0.423,-0.423,-0.4231,-0.3565,-0.3584,-0.364,-0.3681,-0.3719,-0.3758,-0.378,-0.3824,-0.386,-0.3912,-0.3943,-0.3982,-0.4031,-0.4098,-0.4128,-0.4158,-0.4172,-0.4174,-0.4174,-0.4174,-0.4169,-0.419,-0.4167,-0.4167,-0.4167,-0.4167,-0.4167,0,-0.3528,-0.3567,-0.3604,-0.3663,-0.3695,-0.3727,-0.3775,-0.3798,-0.3833,-0.3877,-0.3912,-0.3958,-0.3997,-0.4049,-0.4092,-0.4105,-0.4122,-0.4114,-0.4114,-0.4121,-0.4153,-0.4149,-0.41,-0.41,-0.41,-0.41,-0.41,-0.41,-0.3513,-0.3547,-0.3579,-0.3631,-0.3668,-0.3709,-0.3733,-0.3768,-0.3803,-0.3853,-0.3886,-0.392,-0.3967,-0.4013,-0.4049,-0.4063,-0.4076,-0.4064,-0.4082,-0.4112,-0.4118,-0.4124,-0.412,-0.4066,-0.4066,-0.4047,-0.4047,-0.4047]}]]